www.pogodaiklimat.ru

АРХИВ ПОГОДЫ в в Альянсе

Время (UTC), дата Ветер
(напр.,м/с)
 
Видим.   Явления Облачность Т
(С)
Тd
(С)
f
(%)
Тe
(С)
Тes
(С)
Комфортность

P
(гПа)

Po
(гПа)
Тmin
(С)
Tmax
(С)
R
(мм)
SD
(см)
00:53 27.09 С  16 км    ясно  +13.0  +4.0  54  +12  +12    1016.4  880.2  +8.3  +20.0  0.3   
01:53 27.09   16 км    ясно  +12.8  +3.9  55  +13  +13    1015.8  880.5  +8.3  +20.0  0.3   
02:53 27.09 С  16 км    ясно  +11.0  +5.0  66  +10  +10    1014.9  880.5  +8.3  +20.0  0.3   
03:53 27.09 С  16 км    ясно  +10.0  +5.0  71  +8  +8    1015.1  880.5  +8.3  +20.0  0.3   
04:53 27.09 С  16 км    ясно  +9.4  +5.0  74  +8  +8    1015.1  880.8  +8.3  +20.0  0.3   
05:53 27.09   16 км    ясно  +6.1  +3.9  86  +5  +5    1014.8  880.5  0.0  +9.4  0.3   
06:53 27.09 СЗ  16 км    ясно  +3.0  +3.0  100  0  0    1014.8  880.2  0.0  +9.4  0.3   
07:53 27.09   16 км    ясно  +5.6  +2.8  82  +5  +5    1014.4  880.2  0.0  +9.4  0.3   
08:53 27.09 З  16 км    ясно  +1.0  0.0  93  -2  -2    1015.4  880.5  0.0  +9.4  0.3   
09:53 27.09 З  16 км    ясно  +3.0  +2.0  93  -2  -2    1015.2  880.5  0.0  +9.4  0.3   
10:53 27.09   16 км  слабый дождь  ясно  +1.7  +1.1  96  0  0    1016.0  880.8  0.0  +9.4  0.3   
11:53 27.09 З  10 км  слабый дождь  ясно  +1.0  +1.0  100  -5  -5    1016.8  880.8  -0.6  +18.9  0.3   
13:53 27.09 З  10 км  слабый дождь  10/0 м
[средняя] 
+8.3  +5.6  83  +6  +6    1016.1  880.8  -0.6  +18.9  0.3   
14:53 27.09 нст  11 км    10/0 м
[средняя] 
+13.0  +5.0  58  +13  +14    1015.6  880.8  -0.6  +18.9  0.3   
15:53 27.09 ЮЗ  16 км    8/0 м
[средняя] 
+16.0  +2.0  39  +16  +18    1014.8  880.2  -0.6  +18.9  0.3   
16:53 27.09 нст  16 км    2/0 м
[средняя] 
+18.9  +1.1  30  +19  +23    1014.2  880.2  -0.6  +18.9  0.3   
17:53 27.09 нст  16 км    ясно  +20.0  +2.0  30  +21  +25  комфорт  1013.6  879.3  +13.9  +22.8  0.3   
18:53 27.09 С  16 км    ясно  +22.0  +1.0  25  +22  +26  комфорт  1013.0  878.7  +13.9  +22.8  0.3   
19:53 27.09 В  16 км  дымка  5/0 м
[средняя] 
+20.0  +2.2  31  +20  +21    1012.8  878.7  +13.9  +22.8  0.3   
20:53 27.09 СВ  9
{10} 
16 км  туман  ясно  +21.0  +3.0  30  +21  +21  комфорт  1013.4  878.7  +13.9  +22.8  0.3   
21:53 27.09 СВ  10  16 км  переохлажденный туман  ясно  +17.0  +3.0  39  +15  +15    1014.3  879.0  +13.9  +22.8  0.3   
22:53 27.09 СВ  16 км  переохлажденный туман  2/0 м
[средняя] 
+13.9  +3.9  51  +12  +12    1016.0  879.9  +13.9  +22.8  0.3   
23:53 27.09 СВ  16 км  дымка  ясно  +12.0  +5.0  62  +9  +9    1017.4  880.8  +6.1  +13.9  0.3   
00:53 28.09 СВ  16 км    10/10 м
[средняя] 
+11.0  +6.0  71  +7  +7    1018.3  882.0  +6.1  +13.9  0.3   
01:53 28.09 СВ  16 км  дымка  10/10 м
[средняя] 
+9.4  +6.7  83  +5  +5    1018.8  882.5  +6.1  +13.9  0.3   
02:35 28.09 СВ  16 км  переохлажденный туман  10/10 м
[средняя] 
+9.0  +7.0  87  +5  +5    1019.6  883.1  +6.1  +13.9  0.3   
03:35 28.09 СВ  16 км  переохлажденный туман  10/10 м  +7.0  +6.0  93  +2  +2    1019.9  883.7  +6.1  +13.9  0.3   
04:38 28.09 СВ  16 км  переохлажденный туман  10/10 м  +6.0  +6.0  100  +2  +2    1019.4  884.0  +6.1  +13.9  0.3   
05:53 28.09 СВ  16 км  дымка  10/10 м  +5.6  +5.6  100  +1  +1    1019.8  884.6  +2.2  +6.1     
06:13 28.09 СВ  16 км  дымка  10/10 м  +6.0  +6.0  100  +1  +1    1020.5  884.6  +2.2  +6.1     
07:53 28.09 СВ  16 км    10/10 м  +3.3  +2.8  97  -4  -4    1021.4  885.5  +2.2  +6.1     
08:34 28.09 СВ  16 км    10/10 м  +3.0  +2.0  93  -3  -3    1022.0  886.1  +2.2  +6.1     
09:53 28.09 СВ  16 км    10/10 м  +2.0  +2.0  100  -4  -4    1023.7  886.9  +2.2  +6.1     
10:17 28.09 СВ  16 км    10/10 м  +2.0  +2.0  100  -4  -4    1024.5  887.5  +2.2  +6.1     
11:53 28.09 СВ  16 км    10/10 м  +2.0  +2.0  100  -4  -4    1025.8  888.1  +2.2  +4.4     
12:53 28.09 СВ  16 км    10/10 м  +2.0  +2.0  100  -3  -3    1026.6  888.7  +2.2  +4.4     
13:53 28.09 С  8 км    10/10 м  +2.2  +1.7  96  -3  -3    1027.6  889.3  +2.2  +4.4     
14:53 28.09 СВ  5 км    10/10 м  +3.0  +3.0  100  -2  -2    1028.1  889.6  +2.2  +4.4     
15:51 28.09 СВ  14 км    10/10 м  +3.0  +3.0  100  -2  -2    1028.4  889.6  +2.2  +4.4     
16:20 28.09 СВ  16 км    10/10 м  +4.0  +3.0  93  -0  -0    1027.9  889.6  +2.2  +4.4     
17:53 28.09 В  16 км    10/10 м  +4.0  +3.0  93  -1  -1    1027.6  889.0  +3.9  +6.7     
18:18 28.09 ЮВ  16 км    10/10 м  +5.0  +3.0  87  +1  +1    1026.8  888.7  +3.9  +6.7     
19:53 28.09 ЮВ  16 км    10/10 м  +6.1  +2.2  76  +2  +2    1026.0  887.8  +3.9  +6.7     
20:53 28.09 ЮВ  16 км    10/10 м  +7.0  +2.0  70  +4  +4    1025.5  887.2  +3.9  +6.7     
21:53 28.09 ЮВ  16 км    10/10 м  +7.0  +2.0  70  +3  +3    1025.0  886.6  +3.9  +6.7     
22:14 28.09 ЮВ  16 км    10/10 м  +7.0  +2.0  70  +3  +3    1024.6  886.6  +3.9  +6.7     
23:53 28.09 Ю  16 км    10/10 м  +6.0  +2.0  75  +2  +2    1024.4  886.1  +5.6  +6.7     
00:53 29.09 Ю  16 км    10/10 м  +6.0  +2.0  75  +1  +1    1024.3  886.1  +5.6  +6.7     

 

Местоположение метеостанции Alliance Minicipal Airport: широта 42.0600 долгота -102.8000 высота над уровнем моря 1197 м.

В архиве по умолчанию представлена погода в в Альянсе за последние 1-2 суток. Обновление информации о фактической погоде в базе происходит ежечасно! Архивные данные за месяц целиком и за предыдущие месяцы Вы можете получить, выбрав интересующий диапазон дат из раскрывающегося списка и нажав кнопку "Ввод!".

Внимание! Архив погоды МЕТАР в базе сайта в настоящее время начинается c 1 января 2011 г. Нет смысла пытаться выбрать более раннюю дату.

Внимание! Время в таблицах - всемирное. Для получения местного времени необходимо прибавить поправку, которая в в Альянсе равна -7 ч.

Ветер - указаны скорость ветра в м/с и направление, откуда дует ветер: С - северный, СВ - северо-восточный, В - восточный, ЮВ - юго-восточный, Ю - южный, ЮЗ - юго-западный, З - западный, СЗ - северо-западный.
Видимость - горизонтальная дальность видимости в метрах или километрах. При видимости от 1 до 10 км при отсутствии осадков обычно наблюдается дымка, при ухудшении видимости до 1 км и менее - туман. В сухую погоду видимость может ухудшаться дымом, пылью или мглою.
Атмосферные явления - указаны явления, наблюдавшиеся в указанный момент времени.
Облачность - указаны через наклонную черту верхняя и нижняя облачность в баллах и высота нижней границы облаков в метрах. Внимание: облачность, как и прочие метеорологические величины в США измеряются автоматическими метеостанциями. Указанные значения в баллах носят условный характер и показывают процент времени, в течение которого, в среднем, лазерный луч высотомера отражался от облаков обратно.
T - Температура воздуха - температура, измеренная на высоте 2 м над землей.
Td - Температура точки росы - температура, при понижении до которой содержащийся в воздухе водяной пар достигнет насыщения.
f - Относительная влажность воздуха - влажноcть воздуха, измеренная на высоте 2 м над землей.
Te - Эффективная температура - температура, которую ощущает одетый по сезону человек в тени. Характеристика душности погоды. При расчете учитывается влияние влажности воздуха и скорости ветра на теплоощущения человека.
Tes - Эффективная температура на солнце - температура, которую ощущает человек, с поправкой на солнечный нагрев. Характеристика знойности погоды. Зависит от высоты солнца над горизонтом, облачности и скорости ветра. Ночью, в пасмурную погоду, а также при ветре 12 м/с и более поправка равна нулю.
P - Атмосферное давление - приведенное к уровню моря атмосферное давление.
Po - Атмосферное давление - измеренное на уровне метеостанции атмосферное давление.
Tmin - Минимальная температура - минимум температуры воздуха на высоте 2 м над землей.
Tmax - Максимальная температура - максимум температуры воздуха на высоте 2 м над землей.
R - Количество осадков - Количество выпавших осадков за 3 или 6 часов, мм.
SD - Снежный покров - Высота снежного покрова, см.